Regional Weather Roundup
Issued by NWS Newport/Morehead, NC

Current Version | Previous Version | Graphics & Text | Print | Product List | Glossary On
Versions: 1 2 3 4 5 6 7 8 9 10 11 12 13 14 15 16 17 18 19 20 21 22 23 24 25 26 27 28 29 30 31 32 33 34 35 36 37 38 39 40 41 42 43 44 45 46 47 48 49 50
000 ASUS42 KMHX 181525 RWRMHX WEATHER ROUNDUP FOR EASTERN NORTH CAROLINA NATIONAL WEATHER SERVICE NEWPORT/MOREHEAD CITY NC 1000 AM EST WED JAN 18 2017 NOTE: "FAIR" INDICATES FEW OR NO CLOUDS BELOW 12,000 FEET WITH NO SIGNIFICANT WEATHER AND/OR OBSTRUCTIONS TO VISIBILITY NCZ015>017-031-032-045>047-102-103-181600- NORTH COAST CITY SKY/WX TMP DP RH WIND PRES REMARKS EDENTON PTSUNNY 62 58 87 W6 29.94R ELIZABETH CITY PTSUNNY 61 58 90 W9 29.91S KITTY HAWK NOT AVBL MANTEO RAIN 56 56 100 W5 29.92R $$ NCZ045>047-081-094-103-104-181600- CENTRAL COAST CITY SKY/WX TMP DP RH WIND PRES REMARKS FRISCO CLOUDY 61 56 83 SW14G21 29.94F HAZE $$ NCZ095-097-098-100-101-181600- SOUTHERN COAST CITY SKY/WX TMP DP RH WIND PRES REMARKS BEAUFORT CLOUDY 60 56 86 W13 29.98S CEDAR ISLAND NOT AVBL JACKSONVILLE LGT RAIN 65 60 84 W10 29.98R PINEY ISLAND NOT AVBL WILMINGTON CLOUDY 67 60 78 W12 30.00R $$ NCZ011>013-027>030-043-044-078>080-089-090>093-098-181600- COASTAL PLAIN CITY SKY/WX TMP DP RH WIND PRES REMARKS AHOSKIE N/A 61 57 86 CALM 29.95R CLINTON CLOUDY 63 60 90 SW6 30.00S ELIZABETHTOWN LGT RAIN 64 60 86 W6 30.01R GOLDSBORO PTSUNNY 62 62 100 W10 29.96R GREENVILLE CLOUDY 63 61 94 SW8 29.98R HAVELOCK CLOUDY 64 58 80 W10 29.98R KENANSVILLE LGT RAIN 63 59 88 W7 30.00R KINSTON CLOUDY 61 59 94 SW9 29.98R NEW BERN LGT RAIN 63 58 83 W13 29.98R RICHLANDS LGT RAIN 62 59 90 SW9 30.00R ROCKY MOUNT CLOUDY 63 58 83 W7 29.97R WASHINGTON LGT RAIN 61 58 91 SW9 29.95S WHITEVILLE CLOUDY 68 60 74 SW7 30.00S $$ AMZ130-135-150-152-154-156-158-170-250-252-270-ANZ085-086-088-633-658-670-181600- MARINE OBSERVATIONS STATION/POSITION TIME TEMP WIND PRES WAVE SWELL AIR SEA DIR/SP/G HT/PER HT/PER (UTC) (F) (DEG/KT/KT) (MB) (FT/S) (FT/S) CHESAPEAKE LIGHT NOT AVBL 64 E VA BEACH 1450 57 57 240/ 14/ 16 1011.9 4/ 5 2/ 8 DUCK 1500 56 46 250/ 13/ 16 1012.2 2 E DUCK 1500 45 N/A 1/ 6 OREGON INLET 1448 52 51 210/ 11/ 12 1013.3 13E OREGON INLT NOT AVBL HATTERAS CG 1500 230/ 11/ 15 1013.3 DIAMOND BUOY 1450 68 71 260/ 25/ 31 1013.6 9/ 7 2/13 CAPE LOOKOUT 1500 62 240/ 14/ 18 1014.6 BEAUFORT LAB 1500 250/ 9/ 17 1014.1 30 SE NEW RVR IN 1508 62 61 260/ 19/ 25 1015.6 30 SE NEW RVR IN 1513 61 N/A 6/ 6 27 SE WRIGHTSVLE 1508 66 69 230/ 23/ 33 1014.9 5 SE WRIGHTSVLE 1408 58 230/ 14/ 19 1015.6 225 S CAPE HAT 1450 72 71 270/ 17/ 21 1019.1 6/ 6 2/ 9 41 SE CHARLESTON 1450 69 71 250/ 17/ 23 1018.9 4/ 5 2/ 9 $$

USA.gov is the U.S. government's official web portal to all federal, state and local government web resources and services.